SR5NLK-1 Weather Reports


time (UTC)temp
C
wind
direction
speed
KPH
gust
KPH
rain 1hr
cm
rain 24hr
cm
rain mn
cm
humidity
%
barometer
mb
20260904071940 21 202 12.9 20.9 0.00 0.05 0.00 73 1031.1
20260904071440 21 270 14.5 27.4 0.00 0.05 0.00 74 1040.6
20260904070940 21 202 4.8 16.1 0.00 0.05 0.00 76 1046.8
20260904070440 21 225 11.3 16.1 0.00 0.05 0.00 79 1034.3
20260904065940 20 202 12.9 14.5 0.00 0.05 0.00 79 1034.3
20260904065439 20 202 11.3 17.7 0.00 0.05 0.00 79 1043.8
20260904064940 20 157 3.2 16.1 0.00 0.05 0.00 81 1043.8
20260904064440 20 225 4.8 12.9 0.00 0.05 0.00 82 1028.0
20260904063940 19 225 3.2 12.9 0.00 0.05 0.00 83 1046.9
20260904063440 18 270 12.9 16.1 0.00 0.05 0.00 84 1037.5
20260904062940 18 202 6.4 14.5 0.00 0.05 0.00 84 1031.2
20260904062440 18 202 6.4 12.9 0.00 0.05 0.00 84 1043.8
20260904062139 18 225 6.4 12.9 0.00 0.05 0.00 84 1046.9
20260904061940 18 225 9.7 12.9 0.00 0.05 0.00 84 1043.7
20260904060940 17 225 6.4 16.1 0.00 0.05 0.00 85 1037.5
20260904060440 17 202 8.0 17.7 0.00 0.05 0.00 85 1056.4
20260904055940 17 202 16.1 16.1 0.00 0.05 0.00 85 1053.2
20260904055440 17 202 3.2 19.3 0.00 0.05 0.00 85 1050.1
20260904054941 17 247 9.7 19.3 0.00 0.05 0.00 85 1031.1
20260904054839 17 202 4.8 19.3 0.00 0.05 0.00 85 1051.9
20260904054440 17 247 9.7 12.9 0.00 0.05 0.00 85 1051.8
20260904053940 17 225 9.7 16.1 0.00 0.05 0.00 85 1040.6
20260904053440 17 225 6.4 12.9 0.00 0.05 0.00 84 1043.7
20260904052940 17 225 12.9 14.5 0.00 0.05 0.00 84 1037.5
20260904052456 17 247 9.7 16.1 0.00 0.05 0.00 84 1021.1
20260904052440 17 202 8.0 16.1 0.00 0.05 0.00 84 1043.8
20260904051940 17 247 9.7 16.1 0.00 0.05 0.00 84 1021.1
20260904051539 16 225 6.4 16.1 0.00 0.05 0.00 84 1034.3
20260904051440 16 202 16.1 16.1 0.00 0.05 0.00 84 1043.8
20260904050940 16 225 12.9 16.1 0.00 0.05 0.00 84 1024.8
20260904050440 16 202 4.8 12.9 0.00 0.05 0.00 84 1046.9
20260904045940 16 225 12.9 14.5 0.00 0.05 0.00 83 1044.3
20260904045440 16 202 11.3 14.5 0.00 0.05 0.00 83 1002.5
20260904044940 16 225 3.2 14.5 0.00 0.05 0.00 83 1044.9
20260904044440 16 247 4.8 16.1 0.00 0.05 0.00 83 1036.6
20260904044239 16 247 14.5 16.1 0.00 0.05 0.00 83 1043.8
20260904043940 16 225 6.4 14.5 0.00 0.05 0.00 83 1017.9
20260904043440 16 247 8.0 16.1 0.00 0.05 0.00 83 1046.8
20260904042940 16 225 16.1 16.1 0.00 0.05 0.00 83 1063.2
20260904042440 16 247 8.0 16.1 0.00 0.05 0.00 83 1057.5
20260904041940 16 247 6.4 14.5 0.00 0.05 0.00 83 1062.7
20260904041440 16 247 9.7 17.7 0.00 0.05 0.00 83 1042.2
20260904040939 16 225 6.4 19.3 0.00 0.05 0.00 83 1062.7
20260904040440 16 270 4.8 11.3 0.00 0.05 0.00 83 1035.1
20260904035940 16 180 4.8 14.5 0.00 0.05 0.00 82 1033.7
20260904035440 16 225 8.0 11.3 0.00 0.05 0.00 82 1075.2
20260904034940 16 180 8.0 12.9 0.00 0.05 0.00 82 986.9
20260904034440 16 225 3.2 12.9 0.00 0.05 0.00 82 1033.4
20260904033940 16 202 12.9 14.5 0.00 0.05 0.00 81 1067.6
20260904033639 16 202 3.2 14.5 0.00 0.05 0.00 81 1055.4
20260904033440 16 225 9.7 14.5 0.00 0.05 0.00 81 1072.9
20260904032940 16 225 6.4 16.1 0.00 0.05 0.00 81 1037.5
20260904032440 16 202 6.4 9.7 0.00 0.05 0.00 81 1082.3
20260904031940 16 225 9.7 12.9 0.00 0.05 0.00 81 1062.7
20260904031440 16 225 4.8 9.7 0.00 0.05 0.00 81 1069.2
20260904030940 16 247 9.7 12.9 0.00 0.05 0.00 81 1088.6
20260904030440 16 202 6.4 9.7 0.00 0.05 0.00 81 1060.2
20260904030339 16 225 8.0 8.0 0.00 0.05 0.00 81 1019.3
20260904025940 16 247 3.2 11.3 0.00 0.05 0.00 81 1067.4
20260904025440 16 202 9.7 9.7 0.00 0.05 0.00 81 1060.9
20260904024940 16 225 6.4 14.5 0.00 0.05 0.00 81 1079.6
20260904024440 16 180 6.4 8.0 0.00 0.05 0.00 81 1061.1
20260904023940 16 247 6.4 9.7 0.00 0.05 0.00 81 1082.5
20260904023440 16 225 6.4 11.3 0.00 0.05 0.00 81 1030.3
20260904023039 16 202 9.7 9.7 0.00 0.05 0.00 81 1040.4
20260904022940 16 202 6.4 8.0 0.00 0.05 0.00 81 1009.9
20260904022440 16 225 8.0 9.7 0.00 0.05 0.00 81 1043.8
20260904021940 16 225 4.8 11.3 0.00 0.05 0.00 81 1022.5
20260904021440 16 180 6.4 9.7 0.00 0.05 0.00 81 1070.5
20260904020940 16 202 3.2 16.1 0.00 0.05 0.00 81 1067.4
20260904020440 16 225 4.8 11.3 0.00 0.05 0.00 81 1072.1
20260904015940 16 247 4.8 12.9 0.00 0.05 0.00 81 1038.2
20260904015739 16 202 6.4 12.9 0.00 0.05 0.00 81 1042.2
20260904015440 16 180 4.8 12.9 0.00 0.05 0.00 81 1067.0
20260904014940 16 202 6.4 9.7 0.00 0.05 0.00 81 1076.5
20260904014440 16 202 6.4 9.7 0.00 0.05 0.00 81 1065.2
20260904014036 16 180 9.7 9.7 0.00 0.05 0.00 81 1086.3
20260904013940 16 180 9.7 9.7 0.00 0.05 0.00 81 1086.3
20260904013440 16 157 9.7 14.5 0.00 0.05 0.00 81 1077.0
20260904012940 16 225 9.7 11.3 0.00 0.05 0.00 81 1086.2
20260904012439 16 202 1.6 11.3 0.00 0.05 0.00 81 1056.4
20260904011940 16 157 3.2 11.3 0.00 0.05 0.00 80 1055.9
20260904011440 16 180 4.8 9.7 0.00 0.05 0.00 80 1085.5
20260904010940 16 180 6.4 11.3 0.00 0.05 0.00 80 1072.1
20260904010440 16 157 9.7 14.5 0.00 0.05 0.00 80 1073.7
20260904005940 16 202 3.2 11.3 0.00 0.05 0.00 80 1068.9
20260904005441 16 180 9.7 12.9 0.00 0.05 0.00 80 1059.5
20260904005139 16 135 8.0 12.9 0.00 0.05 0.00 80 1059.5
20260904004940 16 157 8.0 12.9 0.00 0.05 0.00 80 1010.1
20260904004440 16 157 8.0 9.7 0.00 0.05 0.00 79 1057.9
20260904003941 16 180 0.0 8.0 0.00 0.05 0.00 79 1039.7
20260904003440 16 202 8.0 11.3 0.00 0.05 0.00 79 1020.9
20260904002940 16 202 4.8 8.0 0.00 0.05 0.00 79 1049.7
20260904002441 16 225 6.4 11.3 0.00 0.05 0.00 79 1073.3
20260904001940 16 157 4.8 11.3 0.00 0.05 0.00 79 1054.8
20260904001839 16 157 11.3 11.3 0.00 0.05 0.00 79 1061.1
20260904001440 16 157 6.4 8.0 0.00 0.05 0.00 79 1028.7
20260904000940 16 157 4.8 8.0 0.00 0.05 0.00 79 1070.5
20260904000440 16 112 4.8 9.7 0.00 0.05 0.00 78 1070.2
20260903235940 16 157 4.8 12.9 0.00 0.05 0.00 78 1056.4
20260903235441 16 180 1.6 6.4 0.00 0.05 0.00 78 1071.7
20260903234941 17 157 3.2 9.7 0.05 0.05 0.00 78 1050.1
20260903234540 17 180 1.6 6.4 0.05 0.05 0.00 78 1084.7
20260903234441 17 157 4.8 6.4 0.05 0.05 0.00 78 1070.5
20260903233941 17 157 6.4 9.7 0.05 0.05 0.00 77 1075.2
20260903233440 17 157 9.7 9.7 0.05 0.05 0.00 77 1072.1
20260903232940 17 157 4.8 8.0 0.05 0.05 0.00 77 1030.3
20260903232441 17 157 4.8 9.7 0.05 0.05 0.00 76 1067.4
20260903231940 17 157 6.4 9.7 0.05 0.05 0.00 75 1090.9
20260903231441 17 157 3.2 8.0 0.05 0.05 0.00 74 1062.7
20260903231240 17 157 8.0 11.3 0.05 0.05 0.00 74 1062.7
20260903230941 17 157 6.4 11.3 0.05 0.05 0.00 73 1053.2
20260903230441 17 157 11.3 12.9 0.05 0.05 0.00 72 1035.0
20260903225941 17 180 9.7 14.5 0.05 0.05 0.00 71 985.4
20260903225441 18 180 9.7 14.5 0.00 0.00 0.00 71 1062.7
20260903224941 18 202 12.9 19.3 0.00 0.00 0.00 70 1016.2
20260903224441 18 202 14.5 16.1 0.00 0.00 0.00 70 1019.3
20260903223940 18 202 16.1 16.1 0.00 0.00 0.00 70 1026.6
20260903223441 18 202 8.0 17.7 0.00 0.00 0.00 70 1086.2
20260903222941 18 225 8.0 9.7 0.00 0.00 0.00 70 1050.1
20260903222441 18 202 4.8 12.9 0.00 0.00 0.00 71 1028.8
20260903221941 18 157 4.8 4.8 0.00 0.00 0.00 71 1058.0
20260903221441 18 225 1.6 4.8 0.00 0.00 0.00 71 1017.7
20260903220941 18 157 1.6 8.0 0.00 0.00 0.00 70 1021.8
20260903220640 18 202 8.0 9.7 0.00 0.00 0.00 71 1075.2
20260903220441 18 180 4.8 9.7 0.00 0.00 0.00 70 1078.4
20260903215941 18 202 3.2 9.7 0.00 0.00 0.00 70 993.3
20260903215441 18 225 4.8 8.0 0.00 0.00 0.00 70 1088.9
20260903214941 18 180 6.4 9.7 0.00 0.00 0.00 70 1067.4
20260903214441 18 180 6.4 11.3 0.00 0.00 0.00 69 1067.4
20260903213941 18 135 4.8 8.0 0.00 0.00 0.00 69 1065.8
20260903213441 18 202 4.8 8.0 0.00 0.00 0.00 69 1065.5
20260903213340 18 202 3.2 8.0 0.00 0.00 0.00 69 1029.4
20260903212941 18 225 4.8 12.9 0.00 0.00 0.00 69 1017.8
20260903212441 18 202 4.8 9.7 0.00 0.00 0.00 69 1031.2
20260903211941 18 202 3.2 11.3 0.00 0.00 0.00 69 1065.8
20260903211441 18 180 3.2 12.9 0.00 0.00 0.00 69 1053.2
20260903210941 18 180 6.4 6.4 0.00 0.00 0.00 69 1065.8
20260903210441 18 157 3.2 12.9 0.00 0.00 0.00 68 1062.7
20260903210040 18 202 3.2 9.7 0.00 0.00 0.00 68 1050.1
20260903205941 18 157 3.2 9.7 0.00 0.00 0.00 68 1013.0
20260903205441 18 157 4.8 8.0 0.00 0.00 0.00 68 1052.9
20260903204941 18 157 6.4 8.0 0.00 0.00 0.00 68 1056.4
20260903204441 18 202 6.4 8.0 0.00 0.00 0.00 68 1073.7
20260903203941 18 180 3.2 8.0 0.00 0.00 0.00 68 1033.5
20260903203441 18 180 6.4 8.0 0.00 0.00 0.00 68 1081.5
20260903202941 18 157 3.2 6.4 0.00 0.00 0.00 68 1091.0
20260903202740 18 180 3.2 6.4 0.00 0.00 0.00 68 1050.1
20260903202441 18 202 4.8 8.0 0.00 0.00 0.00 68 1067.4
20260903201941 18 225 8.0 8.0 0.00 0.00 0.00 68 1070.5
20260903201441 18 202 4.8 6.4 0.00 0.00 0.00 68 1067.5
20260903200941 18 157 0.0 8.0 0.00 0.00 0.00 68 1027.2
20260903200441 18 180 3.2 8.0 0.00 0.00 0.00 67 1077.8
20260903195440 18 202 4.8 9.7 0.00 0.00 0.00 67 1059.5
20260903194941 18 180 3.2 8.0 0.00 0.00 0.00 67 1087.8
20260903194441 18 157 3.2 8.0 0.00 0.00 0.00 66 1086.3
20260903193941 18 180 6.4 8.0 0.00 0.00 0.00 66 1065.8
20260903193441 18 180 3.2 8.0 0.00 0.00 0.00 66 1069.0
20260903192941 18 180 4.8 6.4 0.00 0.00 0.00 66 1059.5
20260903192441 19 157 1.6 8.0 0.00 0.00 0.00 65 1078.4
20260903192140 19 157 3.2 8.0 0.00 0.00 0.00 65 1042.9
20260903191941 19 180 1.6 4.8 0.00 0.00 0.00 65 982.3
20260903191441 19 202 3.2 8.0 0.00 0.00 0.00 65 1048.7
20260903190941 19 180 6.4 8.0 0.00 0.00 0.00 65 1015.4
20260903190441 19 180 4.8 6.4 0.00 0.00 0.00 64 1059.5
20260903185941 19 180 1.6 4.8 0.00 0.00 0.00 64 1068.8
20260903185441 19 157 3.2 6.4 0.00 0.00 0.00 63 1079.6
20260903184941 19 180 1.6 6.4 0.00 0.00 0.00 63 1027.2
20260903184840 19 202 1.6 6.4 0.00 0.00 0.00 63 1086.3
20260903184441 19 157 4.8 8.0 0.00 0.00 0.00 63 1022.5
20260903183941 19 157 3.2 6.4 0.00 0.00 0.00 63 1065.8
20260903183441 20 157 3.2 8.0 0.00 0.00 0.00 63 1072.1
20260903182941 20 202 6.4 8.0 0.00 0.00 0.00 62 1087.5
20260903182441 20 180 0.0 6.4 0.00 0.00 0.00 62 1036.6
20260903181942 20 202 3.2 9.7 0.00 0.00 0.00 61 1092.5
20260903181540 20 180 3.2 8.0 0.00 0.00 0.00 61 1065.8
20260903181441 20 202 3.2 11.3 0.00 0.00 0.00 61 1083.1
20260903180941 20 202 6.4 14.5 0.00 0.00 0.00 61 1067.4
20260903180441 20 247 6.4 9.7 0.00 0.00 0.00 61 1053.2
20260903175941 20 202 8.0 12.9 0.00 0.00 0.00 61 1064.2
20260903175441 20 202 9.7 11.3 0.00 0.00 0.00 61 1065.8
20260903174941 20 180 9.7 12.9 0.00 0.00 0.00 60 1012.7
20260903174441 20 225 6.4 6.4 0.00 0.00 0.00 60 1022.5
20260903174240 20 225 4.8 6.4 0.00 0.00 0.00 60 987.0
20260903173942 20 202 4.8 4.8 0.00 0.00 0.00 60 1079.9
20260903173441 20 180 3.2 4.8 0.00 0.00 0.00 59 1035.0
20260903172941 20 225 3.2 4.8 0.00 0.00 0.00 59 1076.8
20260903172441 20 157 1.6 3.2 0.00 0.00 0.00 58 1054.7
20260903171941 20 157 1.6 3.2 0.00 0.00 0.00 58 1081.5
20260903171441 20 202 1.6 3.2 0.00 0.00 0.00 57 1055.5
20260903170940 21 202 3.2 3.2 0.00 0.00 0.00 57 1025.6
20260903170441 21 180 3.2 3.2 0.00 0.00 0.00 56 1046.9
20260903165941 21 180 1.6 3.2 0.00 0.00 0.00 56 1073.7
20260903165441 21 202 3.2 4.8 0.00 0.00 0.00 55 1078.4
20260903164941 21 180 1.6 4.8 0.00 0.00 0.00 55 1025.6
20260903164441 21 225 4.8 4.8 0.00 0.00 0.00 54 1083.7
20260903163941 21 225 3.2 6.4 0.00 0.00 0.00 54 1022.1
20260903163640 22 225 3.2 6.4 0.00 0.00 0.00 53 1080.0
20260903163441 22 225 3.2 6.4 0.00 0.00 0.00 53 1091.1
20260903162941 22 225 1.6 8.0 0.00 0.00 0.00 52 1014.6
20260903162441 22 225 3.2 9.7 0.00 0.00 0.00 52 1076.8
20260903161941 22 270 4.8 9.7 0.00 0.00 0.00 51 1058.0
20260903161441 23 202 3.2 12.9 0.00 0.00 0.00 51 1031.1
20260903160941 23 247 4.8 12.9 0.00 0.00 0.00 50 1025.6
20260903160441 23 270 6.4 11.3 0.00 0.00 0.00 50 1067.3
20260903160340 23 270 3.2 11.3 0.00 0.00 0.00 50 1090.9
20260903155941 23 247 3.2 11.3 0.00 0.00 0.00 49 1033.4
20260903155441 23 225 6.4 12.9 0.00 0.00 0.00 49 1073.8
20260903154941 23 225 3.2 11.3 0.00 0.00 0.00 49 1071.5
20260903154441 23 225 4.8 8.0 0.00 0.00 0.00 49 1075.3
20260903153941 23 225 11.3 12.9 0.00 0.00 0.00 48 1034.3
20260903153441 23 202 4.8 22.5 0.00 0.00 0.00 48 1007.5
20260903153040 23 270 9.7 14.5 0.00 0.00 0.00 48 1043.8
20260903152941 23 270 9.7 14.5 0.00 0.00 0.00 48 1068.9
20260903152441 24 247 14.5 16.1 0.00 0.00 0.00 48 1040.4
20260903151942 24 202 3.2 9.7 0.00 0.00 0.00 47 1025.3
20260903151441 24 202 9.7 12.9 0.00 0.00 0.00 47 1036.6
20260903150941 24 225 9.7 9.7 0.00 0.00 0.00 47 1070.2
20260903150441 25 225 3.2 17.7 0.00 0.00 0.00 46 1067.4
20260903145942 25 202 6.4 14.5 0.00 0.00 0.00 46 1022.7
20260903145740 25 225 8.0 14.5 0.00 0.00 0.00 46 1059.2
20260903145442 25 270 11.3 12.9 0.00 0.00 0.00 46 1062.6
20260903144941 25 202 8.0 11.3 0.00 0.00 0.00 46 1081.5
20260903144442 25 202 4.8 17.7 0.00 0.00 0.00 46 1038.6
20260903143942 25 225 14.5 17.7 0.00 0.00 0.00 46 1059.1
20260903143441 25 247 14.5 16.1 0.00 0.00 0.00 47 1079.2
20260903142941 24 247 14.5 16.1 0.00 0.00 0.00 47 1056.3
20260903142441 24 202 8.0 16.1 0.00 0.00 0.00 47 1032.5
20260903141941 24 292 9.7 19.3 0.00 0.00 0.00 47 1073.7
20260903141442 24 270 1.6 14.5 0.00 0.00 0.00 47 1066.5
20260903140941 24 270 6.4 11.3 0.00 0.00 0.00 47 1059.5
20260903140442 24 270 4.8 16.1 0.00 0.00 0.00 47 1056.4
20260903135942 24 270 4.8 6.4 0.00 0.00 0.00 47 1081.3
20260903135441 24 270 6.4 12.9 0.00 0.00 0.00 46 1057.4
20260903135141 24 270 11.3 19.3 0.00 0.00 0.00 46 1037.5
20260903134942 24 225 4.8 19.3 0.00 0.00 0.00 46 1071.3
20260903134442 24 247 4.8 11.3 0.00 0.00 0.00 46 1071.7
20260903133942 25 292 8.0 16.1 0.00 0.00 0.00 45 1020.2
20260903133442 25 270 16.1 22.5 0.00 0.00 0.00 44 1061.3
20260903132942 25 270 11.3 20.9 0.00 0.00 0.00 44 1053.2
20260903132442 26 225 4.8 11.3 0.00 0.00 0.00 43 1016.3
20260903131942 25 225 4.8 9.7 0.00 0.00 0.00 44 1078.0
20260903131841 25 225 8.0 16.1 0.00 0.00 0.00 44 1067.7
20260903131442 25 225 6.4 16.1 0.00 0.00 0.00 44 1065.4
20260903130942 25 270 6.4 17.7 0.00 0.00 0.00 43 1046.3
20260903130442 25 292 16.1 19.3 0.00 0.00 0.00 43 1037.5
20260903125942 25 270 12.9 22.5 0.00 0.00 0.00 43 1022.8
20260903125442 26 180 6.4 20.9 0.00 0.00 0.00 43 1053.2
20260903124942 26 292 17.7 20.9 0.00 0.00 0.00 42 1067.6
20260903124541 26 292 6.4 14.5 0.00 0.00 0.00 42 1046.9
20260903124442 26 247 8.0 14.5 0.00 0.00 0.00 42 1030.7
20260903123942 26 247 3.2 16.1 0.00 0.00 0.00 43 1010.5
20260903123442 25 247 16.1 16.1 0.00 0.00 0.00 43 1053.5
20260903122942 25 270 12.9 19.3 0.00 0.00 0.00 43 1043.8
20260903122442 25 270 16.1 16.1 0.00 0.00 0.00 43 1046.9
20260903121942 25 202 6.4 16.1 0.00 0.00 0.00 43 1021.7
20260903121442 25 292 9.7 12.9 0.00 0.00 0.00 43 1031.2
20260903121241 25 270 4.8 17.7 0.00 0.00 0.00 43 1053.2
20260903120942 26 247 4.8 17.7 0.00 0.00 0.00 43 1050.1
20260903120442 25 292 9.7 20.9 0.00 0.00 0.00 44 1040.6
20260903114942 25 247 6.4 16.1 0.00 0.00 0.00 43 1062.7
20260903114442 25 270 9.7 17.7 0.00 0.00 0.00 43 1059.5
20260903113941 25 247 12.9 17.7 0.00 0.00 0.00 43 1040.6
20260903113442 25 270 3.2 14.5 0.00 0.00 0.00 44 1043.8
20260903112942 25 270 9.7 20.9 0.00 0.00 0.00 43 1050.1
20260903112442 25 22 6.4 19.3 0.00 0.00 0.00 43 1037.5
20260903111942 25 292 6.4 17.7 0.00 0.00 0.00 43 1034.3
20260903111442 25 247 16.1 16.1 0.00 0.00 0.00 43 1037.4
20260903110942 25 270 8.0 16.1 0.00 0.00 0.00 43 1031.1
20260903110641 25 202 6.4 20.9 0.00 0.00 0.00 43 1043.7
20260903110442 25 270 4.8 20.9 0.00 0.00 0.00 43 1043.8
20260903105942 25 22 6.4 17.7 0.00 0.00 0.00 43 1034.3
20260903105442 25 292 9.7 25.7 0.00 0.00 0.00 43 1062.7
20260903104942 25 270 16.1 25.7 0.00 0.00 0.00 44 1024.8
20260903104442 25 247 9.7 22.5 0.00 0.00 0.00 44 1046.9
20260903103942 24 247 11.3 20.9 0.00 0.00 0.00 44 1031.1
20260903103442 25 315 16.1 19.3 0.00 0.00 0.00 43 1037.5
20260903103341 25 270 6.4 19.3 0.00 0.00 0.00 43 1050.1
20260903102942 25 270 17.7 22.5 0.00 0.00 0.00 43 1018.5
20260903102442 25 292 14.5 27.4 0.00 0.00 0.00 42 1037.5
20260903101942 25 270 8.0 20.9 0.00 0.00 0.00 44 1046.9
20260903101442 25 270 8.0 30.6 0.00 0.00 0.00 44 1040.6
20260903100942 25 270 6.4 25.7 0.00 0.00 0.00 44 1034.3
20260903100442 25 270 14.5 22.5 0.00 0.00 0.00 44 1031.1
20260903100041 25 225 11.3 16.1 0.00 0.00 0.00 46 1034.3
20260903095942 24 202 16.1 16.1 0.00 0.00 0.00 46 1031.1
20260903095442 23 270 19.3 22.5 0.00 0.00 0.00 46 1040.6
20260903094942 23 292 6.4 19.3 0.00 0.00 0.00 45 1031.2
20260903094442 23 225 6.4 24.1 0.00 0.00 0.00 46 1037.5
20260903093942 23 225 4.8 17.7 0.00 0.00 0.00 46 1018.5
20260903093442 24 292 6.4 19.3 0.00 0.00 0.00 43 1021.7
20260903092942 25 247 6.4 24.1 0.00 0.00 0.00 45 1021.7
20260903092741 25 270 9.7 14.5 0.00 0.00 0.00 44 1028.0
20260903092442 25 292 4.8 17.7 0.00 0.00 0.00 44 1028.0
20260903091942 25 270 4.8 19.3 0.00 0.00 0.00 45 1018.3
20260903091442 25 225 11.3 17.7 0.00 0.00 0.00 45 1043.8
20260903090943 25 270 16.1 16.1 0.00 0.00 0.00 45 1037.5
20260903090442 25 247 9.7 12.9 0.00 0.00 0.00 44 1024.8
20260903085948 25 247 3.2 12.9 0.00 0.00 0.00 45 1034.3
20260903085942 25 247 3.2 12.9 0.00 0.00 0.00 45 1034.3
20260903085441 25 225 3.2 20.9 0.00 0.00 0.00 45 1037.5
20260903084942 25 247 12.9 14.5 0.00 0.00 0.00 45 1028.0
20260903084442 25 225 3.2 11.3 0.00 0.00 0.00 45 1021.6
20260903083942 26 247 3.2 9.7 0.00 0.00 0.00 43 1034.3
20260903083442 27 292 6.4 19.3 0.00 0.00 0.00 42 1050.1
20260903082942 28 270 9.7 9.7 0.00 0.00 0.00 43 1031.1
20260903082442 28 292 6.4 9.7 0.00 0.00 0.00 42 1043.8
20260903082141 29 270 3.2 12.9 0.00 0.00 0.00 41 1031.1
20260903081942 30 315 4.8 12.9 0.00 0.00 0.00 41 1043.8
20260903081442 30 247 4.8 9.7 0.00 0.00 0.00 42 1031.1
20260903080942 31 270 3.2 8.0 0.00 0.00 0.00 40 1053.2
20260903080442 31 225 3.2 4.8 0.00 0.00 0.00 41 1046.9
20260903075942 31 270 0.0 8.0 0.00 0.00 0.00 42 1050.1
20260903075442 31 180 4.8 6.4 0.00 0.00 0.00 43 1018.5
20260903074942 30 90 3.2 8.0 0.00 0.00 0.00 44 1034.3
20260903074841 30 135 1.6 8.0 0.00 0.00 0.00 44 1031.2
20260903074442 30 202 3.2 9.7 0.00 0.00 0.00 44 1059.5
20260903073942 30 225 6.4 9.7 0.00 0.00 0.00 45 1028.0
20260903073442 30 180 3.2 9.7 0.00 0.00 0.00 44 1040.6
20260903072942 30 202 3.2 9.7 0.00 0.00 0.00 44 1031.1
20260903072442 30 202 6.4 9.7 0.00 0.00 0.00 44 1037.5
20260903071942 30 180 4.8 8.0 0.00 0.00 0.00 45 1034.3